Temperature
24 23 22 22 21 21 20 20 20 19 19 19 19 18 18 18 18 18 18 18 18 18 18 18 18 18 18 18 17 17 17 18 17 18 18 18 18 18 17 17 17 17 17
25 23 22 22 22 21 21 21 20 20 20 19 19 19 18 18 18 18 18 18 18 18 18 18 18 18 18 17 17 17 17 17 17 18 18 18 18 17 18 17 17 17 17
25 24 23 22 22 21 21 21 21 20 20 19 19 19 19 18 18 18 18 18 18 18 18 18 18 18 17 17 17 17 17 17 17 18 18 19 19 19 18 17 17 17 17
25 24 23 23 22 22 22 21 21 21 20 20 19 19 19 19 18 18 18 18 18 18 18 18 18 18 17 18 17 17 17 17 17 17 17 17 18 19 19 18 18 17 17
26 25 24 23 23 22 21 21 21 21 21 20 20 19 19 19 19 18 18 18 18 18 18 18 18 18 17 18 18 17 17 17 17 17 17 17 17 18 18 19 18 18 17
26 25 24 23 23 22 22 21 21 21 21 20 20 19 19 19 19 18 18 18 18 18 18 18 18 17 17 18 18 17 17 17 17 17 17 17 18 18 18 18 18 18 18
26 25 24 23 23 22 22 21 21 21 21 20 20 20 19 19 19 19 18 18 18 18 18 18 18 17 17 17 17 17 17 17 17 17 17 17 17 17 17 18 18 18 18
26 25 24 23 23 22 22 21 21 21 20 20 20 20 20 19 19 19 18 18 18 18 18 18 18 17 17 17 17 17 17 17 17 17 17 17 17 17 17 17 17 18 18
26 25 24 23 23 22 22 21 21 21 20 20 20 20 20 19 19 19 19 18 18 18 18 18 17 17 17 17 17 17 17 17 17 17 16 16 16 16 16 16 17 17 18
26 25 24 24 23 22 22 21 21 21 20 20 20 20 20 20 20 19 19 18 18 18 18 18 17 17 17 17 17 17 17 16 16 16 16 16 16 16 16 16 16 16 17
26 25 24 24 23 22 22 21 21 20 20 20 20 19 19 19 19 19 19 19 18 18 18 18 18 17 17 17 17 16 16 16 16 16 16 16 16 16 16 16 16 16 16
26 25 24 23 23 22 22 21 21 21 20 20 20 19 19 19 19 19 19 18 18 18 18 18 18 17 17 17 17 16 16 16 16 16 16 16 16 16 16 16 16 16 16
25 24 23 23 22 22 22 21 21 21 21 20 20 19 19 19 19 18 18 18 18 18 18 18 18 17 17 17 17 16 16 16 16 16 16 16 15 15 15 15 16 16 16
24 24 23 22 22 21 22 21 21 21 20 20 20 19 19 19 18 18 18 18 18 18 18 18 18 17 17 17 16 16 16 16 16 16 16 15 15 15 15 15 15 15 15
24 23 23 22 22 21 21 21 21 20 20 20 20 19 19 19 18 18 18 18 18 18 18 18 17 17 17 17 16 16 16 16 16 16 16 15 15 16 15 15 15 15 15
23 23 22 22 21 21 21 21 20 20 20 20 19 19 19 18 18 18 18 18 18 18 17 17 17 17 17 17 17 16 16 16 15 15 15 15 15 15 15 15 15 15 14
23 22 22 21 21 21 21 21 20 20 20 20 19 19 19 18 18 18 18 18 18 18 17 17 17 17 17 17 17 16 16 16 15 15 15 15 15 15 15 15 15 15 15
22 21 21 21 21 21 21 20 20 20 20 19 19 19 19 18 18 18 18 18 18 17 17 17 17 17 17 17 16 16 16 15 15 15 15 15 15 15 15 15 14 14 14
21 21 21 21 21 20 20 20 20 20 19 19 19 19 19 19 18 18 18 18 18 17 17 17 17 16 17 17 16 16 15 15 15 15 15 15 15 15 15 14 14 14 14
20 20 20 20 20 20 20 20 20 19 19 19 19 19 19 18 18 18 18 18 18 17 17 17 17 16 16 16 16 16 15 15 15 15 15 15 15 15 15 14 14 14 14
19 19 19 19 19 19 19 19 19 19 19 19 19 19 18 18 18 18 18 18 17 17 17 17 17 16 16 16 16 16 15 15 14 15 14 15 15 14 14 14 13 13 13
18 18 18 18 18 19 19 19 19 19 19 18 18 18 18 18 18 18 18 17 17 17 16 16 16 16 16 16 16 16 15 15 14 14 14 14 14 14 14 13 13 13 13
18 18 18 18 18 18 18 18 18 18 18 18 18 18 18 18 17 17 17 17 17 16 16 16 16 16 16 16 16 16 15 15 14 14 14 14 14 14 13 13 13 13 13
17 17 17 17 17 18 18 18 18 18 18 18 17 17 17 17 17 17 17 16 16 16 16 16 16 16 15 15 15 15 15 15 14 14 14 14 13 13 13 13 13 13 12
17 17 17 17 17 17 17 17 17 18 17 17 17 17 17 17 17 17 17 16 16 16 16 16 16 16 15 15 16 15 15 14 14 14 13 13 13 13 13 13 13 12 12
16 16 16 16 17 17 17 17 17 17 17 17 16 17 17 16 16 16 16 16 16 16 16 16 15 15 15 15 15 15 15 14 14 13 13 13 13 13 13 13 12 12 12
Wind_Speed
12 12 12 11 11 10 10 10 9 8 7 6 5 5 4 4 4 3 3 3 3 3 1 1 2 1 1 1 2 1 2 1 1 2 2 2 3 3 3 2 1 2 2
13 13 13 12 12 12 11 11 10 10 9 6 5 4 4 4 3 3 3 3 3 3 3 2 2 2 2 2 2 1 1 1 1 2 2 2 3 3 2 2 2 2 2
14 15 14 14 13 13 13 11 11 10 9 8 6 5 5 4 4 4 4 3 3 3 2 2 1 1 2 2 2 2 2 1 1 1 2 2 1 2 3 2 2 2 2
14 14 15 15 15 14 13 12 11 11 10 9 8 8 6 5 5 4 4 4 4 4 4 3 2 1 1 2 2 2 2 2 2 1 1 3 3 2 1 3 2 2 2
13 14 15 15 14 13 12 12 12 11 10 10 9 8 7 6 5 5 5 5 5 4 4 4 3 2 2 1 1 2 2 2 2 2 1 1 1 3 3 1 1 1 2
11 12 13 13 13 13 13 12 12 11 11 10 10 9 7 6 6 6 5 5 5 5 5 4 3 3 2 2 2 3 3 2 2 2 2 2 2 2 2 2 3 2 2
10 12 13 13 14 14 13 13 13 12 12 12 10 10 9 8 7 7 6 5 5 5 5 5 4 3 3 3 3 3 3 3 3 3 2 2 3 2 3 3 3 3 2
10 11 12 12 13 14 14 13 14 13 13 12 11 10 10 8 7 7 6 5 4 4 5 5 5 4 4 4 4 4 3 3 3 3 2 3 3 3 3 3 3 4 3
9 10 10 11 12 13 13 14 14 13 13 12 11 10 10 9 7 7 7 6 4 4 6 6 5 5 5 4 4 3 3 3 4 3 3 4 3 3 3 3 4 4 5
8 9 9 9 10 11 11 12 13 13 13 12 11 10 10 10 8 8 7 6 5 5 6 6 5 5 5 5 5 4 3 4 3 3 3 4 3 3 3 4 4 4 5
7 8 8 8 9 10 11 11 11 12 12 12 11 10 10 10 9 8 7 7 6 6 7 7 6 5 5 5 5 5 4 5 4 4 4 4 4 4 4 4 4 4 5
5 7 8 8 8 10 10 10 11 11 12 12 11 11 10 9 9 9 8 7 7 7 7 7 7 6 6 6 6 6 5 5 5 5 4 4 4 4 4 4 4 4 4
4 5 7 8 8 8 9 9 10 11 11 11 11 11 11 10 10 8 8 7 7 7 7 8 7 7 6 6 6 6 6 6 6 5 5 5 5 5 4 5 5 5 5
5 6 6 7 7 7 8 9 9 9 9 10 11 10 10 10 9 8 8 8 8 8 8 8 7 7 7 7 6 6 6 6 6 5 6 6 5 6 6 5 5 5 5
5 6 6 6 7 7 8 8 7 7 8 9 9 9 9 9 9 8 8 8 8 9 8 8 7 7 7 6 7 7 7 6 6 6 6 6 4 4 5 6 5 5 6
5 6 7 7 7 7 8 8 8 8 8 9 9 8 8 9 9 9 9 9 8 8 8 8 8 8 7 5 6 7 7 6 6 6 6 6 6 5 6 6 6 7 7
3 5 6 6 6 7 8 8 8 8 8 8 7 8 8 8 9 9 9 9 9 9 8 8 7 7 6 6 7 7 7 7 6 6 6 6 4 5 5 6 9 8 8
2 3 4 5 6 6 7 8 8 8 8 7 7 8 8 8 8 8 9 9 8 8 7 7 8 7 7 8 8 8 8 7 7 6 6 6 5 5 5 6 7 7 7
3 2 3 4 5 6 7 8 8 8 8 8 8 8 8 8 8 8 8 8 7 7 7 7 8 8 7 8 9 9 7 7 7 7 6 6 6 3 5 7 7 7 6
2 1 1 3 4 5 6 8 9 8 8 8 7 7 8 8 8 8 8 7 7 7 7 7 8 8 7 8 9 9 7 6 6 6 6 6 5 4 5 7 7 7 6
3 1 1 2 3 4 5 7 8 8 7 7 7 7 7 7 7 6 7 7 7 7 7 7 7 7 7 8 9 9 7 6 6 5 5 4 5 6 6 8 7 6 6
3 2 0 1 1 3 5 5 6 5 6 6 6 6 7 7 6 7 7 7 7 8 8 7 7 7 7 7 8 10 10 7 7 6 5 3 5 7 8 7 5 6 7
2 2 1 1 1 1 2 3 3 4 5 6 6 6 6 6 6 7 7 7 7 7 7 7 7 6 6 7 9 11 10 9 7 5 2 3 6 7 8 9 8 7 6
3 2 1 1 1 1 2 2 2 3 4 5 5 5 6 6 6 6 6 7 7 7 7 7 6 6 6 5 5 6 6 7 7 5 4 6 7 7 5 5 6 6 5
3 3 3 2 2 2 2 2 2 3 4 4 4 5 6 6 6 6 5 7 7 6 7 6 6 6 6 5 5 5 5 5 5 4 4 4 5 5 5 5 5 5 5
4 4 4 4 3 3 3 3 3 3 4 4 5 5 5 5 6 6 6 4 4 4 5 4 5 4 2 5 6 6 5 4 4 5 5 5 5 5 5 5 5 5 5
Wind_Direction
193 191 193 190 187 186 186 188 189 180 183 184 186 181 179 178 168 167 151 167 161 152 168 134 136 165 120 114 139 164 165 194 182 185 164 165 177 168 170 199 204 185 194
195 194 196 196 192 189 189 189 192 189 191 188 188 186 176 177 172 169 157 182 179 180 172 155 167 137 131 138 145 185 221 197 214 240 213 187 169 184 170 184 199 211 207
202 198 200 201 197 193 193 193 193 190 193 187 183 176 168 177 175 179 179 187 193 193 180 158 153 155 183 150 171 189 205 217 221 274 282 274 198 153 165 181 177 203 231
207 203 201 202 200 196 193 192 190 190 188 187 191 187 188 188 185 191 186 185 191 190 174 165 157 182 174 154 200 167 222 228 228 220 290 320 342 282 179 181 174 196 223
206 205 203 201 200 193 189 188 187 187 186 189 191 196 200 194 187 187 181 190 183 189 183 172 175 189 202 175 204 178 230 228 246 252 238 245 243 269 278 250 229 214 222
202 202 200 195 195 191 188 186 182 185 184 187 190 196 197 197 192 190 185 191 185 189 186 186 185 191 186 182 195 197 202 236 251 268 266 259 267 270 274 272 257 258 244
197 194 193 192 193 192 190 185 182 185 186 187 191 193 195 196 198 199 195 202 194 191 183 189 188 189 186 191 196 200 218 217 220 239 257 268 274 284 282 283 283 274 256
195 193 193 193 194 195 194 190 186 188 188 189 192 195 195 198 200 201 203 200 205 194 177 189 188 186 190 197 198 211 208 209 216 227 255 267 270 272 273 282 284 279 261
192 191 191 192 192 194 195 194 191 190 192 191 191 196 196 200 200 196 204 206 201 192 185 191 191 192 195 203 207 209 217 219 226 226 229 256 264 265 268 270 272 281 283
190 190 189 192 191 191 191 193 194 194 193 193 194 194 197 197 199 203 204 207 202 193 190 192 194 193 197 203 213 212 209 227 233 244 258 265 266 273 269 268 265 267 277
189 186 187 189 190 190 189 189 192 195 196 198 197 198 198 197 197 201 203 204 205 196 196 195 190 193 200 204 212 225 217 228 235 241 241 249 271 270 266 263 264 264 267
192 184 181 184 188 188 186 187 190 194 197 197 198 199 200 198 198 199 201 201 201 202 198 198 196 201 203 208 215 224 223 227 233 240 245 249 245 250 268 269 265 263 265
194 182 178 181 185 186 186 189 196 196 196 194 197 199 198 199 201 200 199 199 201 204 202 201 201 205 209 212 218 222 228 231 236 239 242 246 249 254 260 266 267 265 260
196 190 183 184 185 186 186 190 197 196 195 194 195 196 198 199 200 198 199 200 203 204 203 204 204 208 210 211 216 219 225 231 236 240 243 246 251 258 263 258 261 270 272
200 196 193 187 188 185 183 185 189 189 192 193 196 194 195 197 198 200 203 203 206 206 203 204 205 211 211 213 215 222 225 230 238 241 243 245 248 272 275 277 274 268 265
208 201 198 194 193 188 183 182 186 184 187 194 196 190 191 195 197 201 205 205 205 206 204 204 206 212 216 186 196 223 227 232 237 244 248 243 229 228 230 257 277 280 268
226 211 204 203 201 193 185 183 186 184 184 190 193 192 194 198 202 203 202 203 202 200 203 207 210 213 206 178 198 219 230 231 236 244 250 254 243 234 248 237 232 243 247
270 225 212 202 199 192 184 183 180 182 185 187 192 198 198 200 204 204 203 204 201 201 202 208 214 216 205 185 200 214 227 233 233 236 241 248 251 250 255 255 250 250 242
302 253 221 203 193 188 181 176 175 177 183 188 192 196 198 199 201 204 203 203 201 203 204 207 213 217 208 186 195 208 221 223 228 231 232 236 240 236 251 251 252 252 250
339 299 195 192 188 184 180 178 178 178 184 190 192 196 199 200 202 205 205 202 202 205 207 207 212 215 215 187 190 206 224 223 226 227 228 223 236 225 234 246 254 257 261
353 5 178 189 178 179 179 183 183 187 190 190 189 191 198 203 203 203 202 200 203 205 210 209 213 216 215 192 191 205 225 231 231 232 234 222 193 219 233 246 252 263 272
354 7 46 158 158 169 178 185 189 188 189 190 192 194 197 205 199 199 201 203 203 202 206 209 214 212 208 205 196 203 225 246 236 240 245 224 186 214 225 232 241 250 259
330 340 21 115 143 169 177 188 188 186 188 189 194 197 197 201 201 200 201 203 205 211 210 211 214 214 209 193 187 199 214 229 236 243 240 213 209 220 225 223 222 230 242
315 308 271 212 204 204 196 207 191 190 193 194 196 199 200 202 198 206 210 213 213 216 215 215 219 218 207 205 200 208 212 215 229 238 206 200 217 233 237 215 216 232 242
307 291 264 247 236 234 233 226 198 194 201 204 206 210 210 208 207 210 215 219 220 223 225 223 219 220 221 205 194 212 214 218 221 224 223 226 223 230 230 227 222 226 225
297 282 268 260 250 236 232 228 215 211 211 215 220 223 223 216 216 213 214 205 227 194 205 243 257 230 187 155 174 202 223 219 197 216 229 232 233 236 236 233 224 222 228
Height
1527 1530 1532 1534 1535 1537 1539 1541 1542 1543 1545 1547 1548 1549 1550 1551 1552 1553 1553 1554 1554 1555 1555 1556 1556 1556 1557 1557 1558 1559 1559 1560 1560 1561 1561 1562 1562 1562 1562 1563 1563 1563 1563
1524 1527 1529 1531 1533 1535 1537 1539 1540 1542 1544 1545 1547 1548 1549 1551 1552 1553 1553 1554 1554 1555 1555 1555 1556 1556 1556 1556 1557 1558 1559 1559 1560 1561 1561 1561 1562 1561 1562 1562 1562 1562 1562
1519 1523 1526 1528 1531 1532 1534 1537 1538 1540 1542 1544 1545 1547 1548 1550 1551 1552 1553 1553 1554 1554 1554 1555 1555 1555 1556 1556 1556 1557 1558 1559 1559 1560 1561 1560 1560 1561 1561 1561 1561 1561 1561
1515 1518 1521 1524 1527 1529 1532 1534 1536 1538 1540 1542 1544 1546 1547 1549 1550 1551 1552 1552 1553 1553 1554 1554 1554 1555 1555 1555 1556 1556 1557 1558 1559 1559 1559 1560 1559 1560 1560 1560 1560 1560 1560
1511 1514 1517 1520 1524 1527 1529 1531 1533 1535 1538 1540 1542 1544 1546 1547 1549 1549 1550 1551 1552 1552 1553 1553 1553 1553 1554 1554 1554 1555 1556 1557 1558 1559 1559 1559 1559 1559 1559 1559 1559 1559 1559
1507 1511 1514 1517 1521 1524 1526 1528 1530 1532 1535 1537 1540 1542 1544 1545 1547 1548 1549 1550 1551 1551 1551 1552 1552 1552 1553 1553 1553 1554 1555 1555 1556 1557 1558 1558 1558 1558 1558 1558 1558 1557 1558
1504 1507 1511 1514 1517 1520 1523 1525 1526 1529 1532 1535 1537 1539 1541 1543 1544 1546 1547 1548 1549 1550 1550 1551 1551 1551 1551 1552 1552 1553 1553 1554 1554 1555 1556 1556 1557 1557 1557 1557 1556 1556 1556
1501 1504 1507 1511 1513 1516 1519 1522 1524 1526 1529 1531 1534 1537 1538 1541 1542 1544 1546 1547 1548 1548 1548 1549 1549 1550 1550 1551 1551 1552 1552 1552 1552 1553 1553 1554 1555 1555 1555 1555 1555 1554 1554
1499 1502 1505 1508 1510 1513 1516 1519 1521 1523 1526 1528 1531 1533 1535 1537 1540 1541 1543 1544 1545 1546 1546 1547 1548 1548 1549 1550 1550 1551 1550 1551 1551 1552 1552 1552 1553 1553 1553 1553 1553 1554 1552
1497 1500 1503 1505 1508 1511 1513 1516 1518 1520 1523 1525 1528 1530 1532 1534 1536 1538 1540 1541 1542 1543 1544 1545 1546 1547 1547 1547 1548 1549 1549 1549 1549 1549 1549 1550 1551 1551 1551 1551 1551 1550 1551
1495 1498 1500 1503 1506 1508 1511 1513 1515 1518 1520 1522 1525 1527 1529 1531 1533 1535 1536 1538 1539 1540 1541 1543 1544 1544 1545 1546 1546 1547 1547 1547 1548 1547 1548 1547 1547 1548 1549 1548 1548 1548 1548
1494 1496 1498 1501 1503 1506 1508 1510 1512 1515 1517 1519 1521 1523 1526 1528 1530 1532 1533 1535 1536 1538 1539 1540 1541 1542 1543 1543 1544 1545 1545 1545 1545 1545 1545 1545 1546 1545 1546 1546 1546 1545 1545
1493 1495 1497 1499 1501 1503 1505 1507 1509 1512 1514 1516 1518 1521 1523 1525 1527 1529 1530 1532 1533 1535 1536 1537 1538 1538 1540 1541 1542 1542 1543 1543 1543 1543 1543 1543 1543 1543 1543 1543 1543 1543 1543
1491 1493 1495 1497 1499 1500 1502 1504 1506 1509 1511 1513 1515 1517 1519 1521 1523 1525 1527 1528 1530 1531 1532 1534 1535 1536 1537 1538 1539 1539 1540 1540 1540 1540 1540 1540 1541 1541 1541 1541 1540 1540 1540
1490 1491 1493 1494 1496 1498 1499 1501 1504 1506 1508 1510 1512 1513 1516 1518 1520 1521 1523 1525 1526 1528 1529 1530 1531 1532 1534 1535 1536 1536 1537 1537 1537 1537 1537 1537 1537 1537 1537 1538 1538 1537 1537
1488 1489 1491 1492 1494 1495 1496 1499 1501 1503 1505 1507 1509 1510 1512 1514 1516 1518 1520 1521 1523 1524 1526 1527 1528 1529 1531 1532 1532 1533 1534 1534 1534 1534 1534 1534 1533 1533 1533 1533 1533 1533 1533
1487 1488 1489 1490 1491 1492 1494 1496 1498 1500 1502 1504 1506 1507 1509 1511 1513 1515 1517 1518 1519 1521 1522 1523 1524 1525 1527 1528 1529 1529 1530 1530 1530 1530 1530 1531 1530 1530 1529 1529 1529 1529 1528
1486 1486 1487 1488 1489 1490 1492 1493 1495 1497 1499 1501 1503 1505 1506 1508 1510 1512 1513 1514 1516 1517 1518 1520 1521 1522 1523 1524 1525 1525 1526 1526 1526 1526 1526 1526 1525 1526 1525 1524 1524 1524 1524
1485 1485 1485 1486 1487 1488 1490 1491 1493 1494 1496 1498 1500 1501 1503 1505 1507 1508 1510 1511 1512 1514 1515 1516 1517 1518 1519 1520 1521 1521 1521 1521 1522 1522 1522 1521 1521 1520 1520 1520 1520 1520 1519
1483 1483 1483 1484 1485 1486 1487 1489 1491 1492 1493 1495 1497 1499 1500 1502 1503 1505 1506 1508 1509 1510 1511 1513 1514 1515 1515 1516 1516 1517 1517 1517 1518 1518 1517 1517 1516 1516 1516 1516 1516 1516 1516
1482 1481 1481 1482 1483 1483 1485 1487 1488 1489 1491 1493 1494 1495 1497 1499 1500 1502 1503 1504 1505 1507 1508 1509 1510 1511 1511 1512 1512 1513 1513 1514 1514 1514 1513 1513 1512 1512 1512 1512 1512 1512 1512
1480 1480 1480 1480 1481 1482 1483 1485 1486 1487 1488 1490 1491 1492 1493 1496 1497 1498 1499 1501 1502 1503 1504 1505 1506 1507 1508 1508 1508 1509 1509 1509 1510 1509 1510 1509 1508 1508 1508 1508 1508 1508 1508
1479 1479 1479 1479 1480 1480 1481 1483 1483 1484 1486 1487 1488 1489 1490 1492 1493 1495 1496 1497 1498 1500 1501 1502 1502 1503 1504 1504 1504 1505 1505 1505 1505 1505 1505 1505 1504 1504 1504 1504 1504 1504 1504
1478 1477 1478 1478 1478 1479 1479 1481 1481 1482 1483 1484 1485 1486 1487 1488 1489 1491 1492 1493 1494 1495 1496 1497 1498 1499 1500 1500 1500 1500 1501 1501 1502 1501 1501 1501 1500 1500 1500 1500 1500 1500 1501
1476 1476 1476 1476 1476 1476 1477 1478 1479 1480 1480 1481 1482 1483 1484 1485 1486 1487 1488 1489 1490 1491 1492 1493 1494 1495 1496 1496 1496 1496 1497 1497 1497 1497 1497 1497 1497 1496 1496 1496 1496 1497 1497
1473 1473 1473 1473 1473 1474 1474 1475 1475 1476 1477 1478 1478 1480 1481 1481 1482 1483 1484 1484 1486 1486 1487 1488 1490 1490 1491 1491 1492 1493 1493 1493 1493 1493 1493 1493 1493 1493 1493 1493 1493 1493 1493